| time (UTC) | temp C | wind direction | speed KPH | gust KPH | rain 1hr cm | rain 24hr cm | rain mn cm | humidity % | barometer mb |
| 20260507094552 | 4 | 256 | 1.6 | 9.7 | 0.00 | 1.75 | 0.03 | 100 | 1005.8 |
| 20260507093048 | 4 | 258 | 3.2 | 8.0 | 0.00 | 1.75 | 0.03 | 100 | 1005.6 |
| 20260507091544 | 4 | 263 | 3.2 | 11.3 | 0.00 | 1.75 | 0.03 | 100 | 1005.8 |
| 20260507090042 | 4 | 259 | 6.4 | 11.3 | 0.00 | 1.75 | 0.03 | 100 | 1005.8 |
| 20260507084534 | 4 | 254 | 3.2 | 8.0 | 0.00 | 1.75 | 0.03 | 100 | 1005.8 |
| 20260507083031 | 4 | 254 | 1.6 | 6.4 | 0.00 | 1.75 | 0.03 | 100 | 1005.7 |
| 20260507081534 | 4 | 253 | 0.0 | 6.4 | 0.00 | 1.75 | 0.03 | 100 | 1005.8 |
| 20260507080023 | 4 | 253 | 0.0 | 4.8 | 0.00 | 1.75 | 0.03 | 100 | 1005.9 |
| 20260507074520 | 4 | 253 | 1.6 | 8.0 | 0.00 | 1.75 | 0.03 | 100 | 1005.9 |
| 20260507073015 | 4 | 253 | 1.6 | 4.8 | 0.00 | 1.75 | 0.03 | 100 | 1005.9 |
| 20260507071511 | 3 | 253 | 0.0 | 4.8 | 0.00 | 1.75 | 0.03 | 100 | 1005.9 |
| 20260507070010 | 4 | 253 | 0.0 | 4.8 | 0.03 | 1.75 | 0.03 | 100 | 1005.9 |
| 20260507064502 | 4 | 253 | 0.0 | 6.4 | 0.03 | 1.75 | 0.03 | 100 | 1006.0 |
| 20260507063058 | 4 | 253 | 0.0 | 6.4 | 0.03 | 1.75 | 0.03 | 100 | 1006.1 |
| 20260507061554 | 4 | 253 | 0.0 | 8.0 | 0.03 | 1.75 | 0.03 | 100 | 1006.2 |
| 20260507060051 | 4 | 252 | 1.6 | 8.0 | 0.00 | 1.73 | 0.00 | 100 | 1006.5 |
| 20260507054546 | 4 | 252 | 1.6 | 11.3 | 0.00 | 1.73 | 0.00 | 100 | 1006.7 |
| 20260507053041 | 4 | 250 | 3.2 | 9.7 | 0.00 | 1.73 | 0.00 | 100 | 1006.8 |
| 20260507051537 | 4 | 252 | 0.0 | 6.4 | 0.00 | 1.73 | 0.00 | 100 | 1006.9 |
| 20260507050038 | 4 | 250 | 1.6 | 9.7 | 0.00 | 1.73 | 0.00 | 100 | 1007.0 |
| 20260507044528 | 4 | 255 | 1.6 | 8.0 | 0.00 | 1.73 | 0.00 | 100 | 1007.0 |
| 20260507043023 | 4 | 255 | 1.6 | 12.9 | 0.00 | 1.73 | 0.00 | 100 | 1007.0 |
| 20260507041535 | 4 | 268 | 1.6 | 6.4 | 0.00 | 1.73 | 0.00 | 100 | 1007.0 |
| 20260507040014 | 5 | 268 | 1.6 | 11.3 | 0.00 | 1.73 | 0.00 | 100 | 1007.2 |
| 20260507034513 | 5 | 269 | 1.6 | 8.0 | 0.00 | 1.85 | 1.73 | 100 | 1007.2 |
| 20260507033009 | 5 | 270 | 0.0 | 6.4 | 0.00 | 1.85 | 1.73 | 100 | 1007.3 |
| 20260507031502 | 5 | 269 | 3.2 | 8.0 | 0.00 | 1.85 | 1.73 | 100 | 1007.3 |
| 20260507024553 | 5 | 270 | 0.0 | 6.4 | 0.00 | 1.96 | 1.73 | 100 | 1007.2 |
| 20260507023103 | 5 | 270 | 1.6 | 8.0 | 0.00 | 1.96 | 1.73 | 100 | 1007.4 |
| 20260507021550 | 5 | 270 | 0.0 | 4.8 | 0.00 | 1.96 | 1.73 | 100 | 1007.4 |
| 20260507020040 | 5 | 270 | 1.6 | 4.8 | 0.00 | 1.96 | 1.73 | 100 | 1007.3 |
| 20260507014549 | 5 | 270 | 0.0 | 6.4 | 0.00 | 2.01 | 1.73 | 100 | 1007.5 |
| 20260507013042 | 5 | 270 | 0.0 | 4.8 | 0.00 | 2.01 | 1.73 | 100 | 1007.6 |
| 20260507011535 | 5 | 270 | 0.0 | 4.8 | 0.00 | 2.01 | 1.73 | 100 | 1007.3 |
| 20260507010021 | 5 | 270 | 0.0 | 3.2 | 0.00 | 2.01 | 1.73 | 100 | 1007.5 |
| 20260507004520 | 5 | 270 | 0.0 | 0.0 | 0.00 | 2.03 | 1.73 | 100 | 1007.6 |
| 20260507003013 | 5 | 270 | 0.0 | 3.2 | 0.03 | 2.03 | 1.73 | 100 | 1007.6 |
| 20260507001509 | 5 | 270 | 0.0 | 4.8 | 0.03 | 2.03 | 1.73 | 100 | 1007.4 |
| 20260507000014 | 5 | 270 | 0.0 | 6.4 | 0.03 | 2.03 | 1.73 | 100 | 1007.4 |
| 20260506234559 | 5 | 270 | 3.2 | 6.4 | 0.05 | 2.03 | 1.73 | 100 | 1007.5 |
| 20260506233102 | 5 | 270 | 0.0 | 3.2 | 0.05 | 2.03 | 1.70 | 100 | 1007.3 |
| 20260506231551 | 5 | 270 | 0.0 | 4.8 | 0.05 | 2.03 | 1.70 | 100 | 1007.2 |
| 20260506230046 | 5 | 270 | 0.0 | 8.0 | 0.08 | 2.03 | 1.70 | 100 | 1007.2 |
| 20260506224542 | 5 | 270 | 0.0 | 4.8 | 0.05 | 2.03 | 1.65 | 100 | 1007.5 |
| 20260506223045 | 5 | 270 | 1.6 | 6.4 | 0.08 | 2.03 | 1.65 | 100 | 1007.5 |
| 20260506221533 | 5 | 270 | 1.6 | 6.4 | 0.05 | 2.01 | 1.65 | 100 | 1007.3 |
| 20260506220029 | 5 | 270 | 0.0 | 3.2 | 0.03 | 1.96 | 1.60 | 100 | 1007.5 |
| 20260506214625 | 5 | 270 | 1.6 | 6.4 | 0.03 | 1.96 | 1.60 | 100 | 1007.5 |
| 20260506213021 | 5 | 270 | 0.0 | 4.8 | 0.00 | 1.93 | 1.57 | 100 | 1007.4 |
| 20260506211516 | 5 | 270 | 0.0 | 6.4 | 0.00 | 1.93 | 1.57 | 100 | 1007.3 |
| 20260506210014 | 5 | 269 | 3.2 | 6.4 | 0.00 | 1.93 | 1.57 | 100 | 1007.5 |
| 20260506204507 | 5 | 268 | 0.0 | 6.4 | 0.00 | 1.93 | 1.57 | 100 | 1007.3 |
| 20260506203004 | 5 | 266 | 1.6 | 6.4 | 0.03 | 1.93 | 1.57 | 100 | 1007.4 |
| 20260506201504 | 5 | 266 | 1.6 | 6.4 | 0.05 | 1.93 | 1.57 | 100 | 1007.5 |
| 20260506200004 | 5 | 266 | 0.0 | 3.2 | 0.05 | 1.93 | 1.57 | 100 | 1007.5 |
| 20260506194614 | 5 | 266 | 0.0 | 4.8 | 0.08 | 1.93 | 1.57 | 100 | 1007.5 |
| 20260506193055 | 5 | 266 | 1.6 | 4.8 | 0.08 | 1.93 | 1.55 | 100 | 1007.6 |
| 20260506191551 | 5 | 266 | 0.0 | 0.0 | 0.10 | 1.91 | 1.55 | 100 | 1008.0 |
| 20260506190046 | 5 | 266 | 0.0 | 1.6 | 0.13 | 1.88 | 1.52 | 100 | 1008.1 |
| 20260506184546 | 5 | 266 | 0.0 | 4.8 | 0.15 | 2.34 | 1.50 | 100 | 1008.1 |
| 20260506183038 | 5 | 263 | 0.0 | 6.4 | 0.15 | 2.31 | 1.45 | 100 | 1008.1 |
| 20260506181537 | 5 | 263 | 0.0 | 4.8 | 0.18 | 2.29 | 1.42 | 100 | 1008.3 |
| 20260506180037 | 5 | 263 | 0.0 | 3.2 | 0.20 | 2.24 | 1.40 | 100 | 1008.4 |
| 20260506174527 | 5 | 263 | 0.0 | 1.6 | 0.23 | 2.26 | 1.37 | 100 | 1008.5 |
| 20260506173020 | 5 | 263 | 0.0 | 1.6 | 0.25 | 2.21 | 1.32 | 100 | 1008.5 |
| 20260506171534 | 5 | 263 | 0.0 | 0.0 | 0.25 | 2.16 | 1.27 | 100 | 1008.6 |
| 20260506170013 | 5 | 263 | 0.0 | 0.0 | 0.28 | 2.11 | 1.19 | 100 | 1008.8 |
| 20260506164507 | 5 | 263 | 0.0 | 3.2 | 0.25 | 2.03 | 1.12 | 100 | 1009.1 |
| 20260506163007 | 5 | 263 | 0.0 | 4.8 | 0.28 | 1.96 | 1.07 | 100 | 1009.3 |
| 20260506161600 | 5 | 263 | 0.0 | 4.8 | 0.28 | 1.91 | 0.99 | 100 | 1009.5 |
| 20260506160105 | 5 | 263 | 4.8 | 8.0 | 0.25 | 1.83 | 0.91 | 100 | 1009.6 |
| 20260506154550 | 5 | 263 | 1.6 | 6.4 | 0.28 | 1.78 | 0.86 | 100 | 1009.3 |
| 20260506153046 | 5 | 257 | 3.2 | 9.7 | 0.30 | 1.70 | 0.79 | 100 | 1009.6 |
| 20260506151541 | 5 | 259 | 0.0 | 8.0 | 0.33 | 1.65 | 0.71 | 100 | 1009.8 |
| 20260506150037 | 5 | 261 | 1.6 | 6.4 | 0.30 | 1.57 | 0.66 | 100 | 1009.9 |
| 20260506144532 | 5 | 261 | 1.6 | 4.8 | 0.25 | 1.65 | 0.56 | 100 | 1010.0 |
| 20260506143028 | 5 | 261 | 3.2 | 9.7 | 0.23 | 1.57 | 0.48 | 100 | 1009.6 |
| 20260506141524 | 5 | 264 | 3.2 | 11.3 | 0.18 | 1.50 | 0.41 | 100 | 1009.6 |
| 20260506140020 | 5 | 247 | 3.2 | 11.3 | 0.15 | 1.42 | 0.33 | 100 | 1009.6 |
| 20260506134527 | 6 | 253 | 4.8 | 11.3 | 0.15 | 1.40 | 0.30 | 100 | 1009.6 |
| 20260506133012 | 6 | 250 | 3.2 | 8.0 | 0.15 | 1.35 | 0.23 | 100 | 1009.7 |
| 20260506131508 | 6 | 247 | 4.8 | 12.9 | 0.15 | 1.32 | 0.23 | 100 | 1009.4 |
| 20260506130002 | 6 | 232 | 4.8 | 12.9 | 0.18 | 1.30 | 0.20 | 100 | 1009.4 |
| 20260506124558 | 6 | 255 | 4.8 | 16.1 | 0.15 | 1.27 | 0.15 | 100 | 1009.5 |
| 20260506123053 | 6 | 269 | 3.2 | 14.5 | 0.10 | 1.19 | 0.10 | 100 | 1009.5 |
| 20260506121549 | 7 | 242 | 8.0 | 17.7 | 0.05 | 1.17 | 0.05 | 100 | 1009.6 |
| 20260506120044 | 7 | 241 | 8.0 | 17.7 | 0.03 | 1.12 | 0.03 | 100 | 1009.5 |
| 20260506114547 | 8 | 246 | 3.2 | 9.7 | 0.00 | 1.09 | 0.00 | 100 | 1009.3 |
| 20260506113039 | 8 | 205 | 1.6 | 9.7 | 0.00 | 1.09 | 0.00 | 100 | 1009.1 |
| 20260506111532 | 8 | 195 | 0.0 | 11.3 | 0.00 | 1.09 | 0.00 | 100 | 1009.0 |
| 20260506110029 | 8 | 190 | 1.6 | 14.5 | 0.00 | 1.09 | 0.00 | 100 | 1008.6 |
| 20260506104524 | 8 | 208 | 4.8 | 12.9 | 0.00 | 1.09 | 0.00 | 100 | 1008.4 |
| 20260506103025 | 8 | 194 | 3.2 | 9.7 | 0.00 | 1.09 | 0.00 | 100 | 1008.2 |
| 20260506101516 | 8 | 200 | 6.4 | 12.9 | 0.00 | 1.09 | 0.00 | 100 | 1008.5 |
| 20260506100013 | 8 | 223 | 6.4 | 16.1 | 0.00 | 1.09 | 0.00 | 100 | 1008.1 |